Time,TemperatureF,DewpointF,PressureIn,WindDirection,WindDirectionDegrees,WindSpeedMPH,WindSpeedGustMPH,Humidity,HourlyPrecipIn,Conditions,Clouds,dailyrainin,SoftwareType,DateUTC
2013-04-29 00:08:00,56.0,32.0,25.18,SW,221,1.0,12.0,41,0.00,,,0.00,weatherlink.com 1.10,2013-04-29 06:08:00,
2013-04-29 00:23:00,55.4,32.0,25.18,ESE,115,7.0,10.0,42,0.00,,,0.00,weatherlink.com 1.10,2013-04-29 06:23:00,
2013-04-29 00:38:00,54.8,32.0,25.16,SE,129,2.0,10.0,43,0.00,,,0.00,weatherlink.com 1.10,2013-04-29 06:38:00,
2013-04-29 00:53:00,54.2,33.0,25.17,WSW,241,2.0,8.0,45,0.00,,,0.00,weatherlink.com 1.10,2013-04-29 06:53:00,
2013-04-29 01:08:00,53.7,33.0,25.16,ESE,122,3.0,10.0,46,0.00,,,0.00,weatherlink.com 1.10,2013-04-29 07:08:00,
2013-04-29 01:23:00,53.4,33.0,25.14,SE,135,6.0,17.0,46,0.00,,,0.00,weatherlink.com 1.10,2013-04-29 07:23:00,
2013-04-29 01:38:00,53.3,33.0,25.14,ESE,122,10.0,21.0,47,0.00,,,0.00,weatherlink.com 1.10,2013-04-29 07:38:00,
2013-04-29 01:53:00,53.4,33.0,25.14,SSE,152,9.0,16.0,47,0.00,,,0.00,weatherlink.com 1.10,2013-04-29 07:53:00,
2013-04-29 02:08:00,53.2,35.0,25.13,SSE,150,2.0,12.0,50,0.00,,,0.00,weatherlink.com 1.10,2013-04-29 08:08:00,
2013-04-29 02:23:00,52.9,36.0,25.12,SSE,154,1.0,8.0,54,0.00,,,0.00,weatherlink.com 1.10,2013-04-29 08:23:00,
2013-04-29 02:38:00,51.1,34.0,25.13,NE,53,0.0,7.0,53,0.00,,,0.00,weatherlink.com 1.10,2013-04-29 08:38:00,
2013-04-29 02:53:00,51.0,34.0,25.13,ESE,122,0.0,5.0,53,0.00,,,0.00,weatherlink.com 1.10,2013-04-29 08:53:00,
2013-04-29 03:08:00,50.5,34.0,25.13,SE,143,0.0,2.0,54,0.00,,,0.00,weatherlink.com 1.10,2013-04-29 09:08:00,
2013-04-29 03:23:00,51.8,37.0,25.12,WSW,253,3.0,6.0,58,0.00,,,0.00,weatherlink.com 1.10,2013-04-29 09:23:00,
2013-04-29 03:38:00,52.6,37.0,25.13,NNW,335,4.0,7.0,55,0.00,,,0.00,weatherlink.com 1.10,2013-04-29 09:38:00,
2013-04-29 03:53:00,50.1,36.0,25.12,WNW,293,1.0,6.0,59,0.00,,,0.00,weatherlink.com 1.10,2013-04-29 09:53:00,
2013-04-29 04:08:00,49.0,36.0,25.11,WNW,292,4.0,7.0,61,0.00,,,0.00,weatherlink.com 1.10,2013-04-29 10:08:00,
2013-04-29 04:23:00,47.5,36.0,25.11,WNW,288,6.0,11.0,64,0.00,,,0.00,weatherlink.com 1.10,2013-04-29 10:23:00,
2013-04-29 04:39:00,46.0,35.0,25.11,NW,309,2.0,8.0,66,0.00,,,0.00,weatherlink.com 1.10,2013-04-29 10:39:00,
2013-04-29 04:54:00,44.8,35.0,25.10,West,276,6.0,8.0,68,0.00,,,0.00,weatherlink.com 1.10,2013-04-29 10:54:00,
2013-04-29 05:09:00,44.5,35.0,25.09,WSW,257,7.0,10.0,69,0.00,,,0.00,weatherlink.com 1.10,2013-04-29 11:09:00,
2013-04-29 05:24:00,43.9,35.0,25.09,WNW,293,3.0,9.0,70,0.00,,,0.00,weatherlink.com 1.10,2013-04-29 11:24:00,
2013-04-29 05:39:00,43.7,34.0,25.09,WNW,285,5.0,7.0,70,0.00,,,0.00,weatherlink.com 1.10,2013-04-29 11:39:00,
2013-04-29 05:54:00,43.5,34.0,25.10,West,270,5.0,8.0,70,0.00,,,0.00,weatherlink.com 1.10,2013-04-29 11:54:00,
2013-04-29 06:09:00,42.7,34.0,25.09,WNW,302,2.0,6.0,72,0.00,,,0.00,weatherlink.com 1.10,2013-04-29 12:09:00,
2013-04-29 06:24:00,42.4,34.0,25.09,WNW,297,2.0,6.0,73,0.00,,,0.00,weatherlink.com 1.10,2013-04-29 12:24:00,
2013-04-29 06:39:00,42.6,35.0,25.09,NW,308,0.0,5.0,73,0.00,,,0.00,weatherlink.com 1.10,2013-04-29 12:39:00,
2013-04-29 06:54:00,43.7,35.0,25.09,West,264,5.0,8.0,71,0.00,,,0.00,weatherlink.com 1.10,2013-04-29 12:54:00,
2013-04-29 07:09:00,45.2,35.0,25.09,WNW,300,2.0,7.0,68,0.00,,,0.00,weatherlink.com 1.10,2013-04-29 13:09:00,
2013-04-29 07:24:00,45.9,35.0,25.09,West,262,2.0,8.0,67,0.00,,,0.00,weatherlink.com 1.10,2013-04-29 13:24:00,
2013-04-29 07:39:00,49.3,37.0,25.08,West,264,4.0,7.0,62,0.00,,,0.00,weatherlink.com 1.10,2013-04-29 13:39:00,
2013-04-29 07:54:00,51.9,38.0,25.08,West,274,5.0,15.0,60,0.00,,,0.00,weatherlink.com 1.10,2013-04-29 13:54:00,
2013-04-29 08:09:00,53.8,40.0,25.07,WSW,247,11.0,13.0,59,0.00,,,0.00,weatherlink.com 1.10,2013-04-29 14:09:00,
2013-04-29 08:24:00,56.4,41.0,25.07,SW,225,7.0,15.0,56,0.00,,,0.00,weatherlink.com 1.10,2013-04-29 14:24:00,
2013-04-29 08:39:00,58.6,41.0,25.06,SW,235,3.0,14.0,52,0.00,,,0.00,weatherlink.com 1.10,2013-04-29 14:39:00,
2013-04-29 08:54:00,59.9,37.0,25.06,ESE,117,6.0,18.0,43,0.00,,,0.00,weatherlink.com 1.10,2013-04-29 14:54:00,
2013-04-29 09:09:00,61.5,36.0,25.05,SSW,212,7.0,20.0,39,0.00,,,0.00,weatherlink.com 1.10,2013-04-29 15:09:00,
2013-04-29 09:24:00,62.7,36.0,25.04,SW,231,19.0,25.0,37,0.00,,,0.00,weatherlink.com 1.10,2013-04-29 15:24:00,
2013-04-29 09:39:00,63.7,36.0,25.04,SE,143,9.0,24.0,36,0.00,,,0.00,weatherlink.com 1.10,2013-04-29 15:39:00,
2013-04-29 09:54:00,64.0,36.0,25.04,SW,225,16.0,24.0,36,0.00,,,0.00,weatherlink.com 1.10,2013-04-29 15:54:00,
2013-04-29 10:09:00,65.2,37.0,25.04,South,181,8.0,22.0,35,0.00,,,0.00,weatherlink.com 1.10,2013-04-29 16:09:00,
2013-04-29 10:24:00,66.6,36.0,25.03,SSW,210,13.0,23.0,33,0.00,,,0.00,weatherlink.com 1.10,2013-04-29 16:24:00,
2013-04-29 10:39:00,67.8,37.0,25.03,WSW,247,15.0,23.0,32,0.00,,,0.00,weatherlink.com 1.10,2013-04-29 16:39:00,
2013-04-29 10:54:00,68.7,35.0,25.02,South,191,15.0,21.0,29,0.00,,,0.00,weatherlink.com 1.10,2013-04-29 16:54:00,
2013-04-29 11:09:00,69.3,32.0,25.02,WSW,243,13.0,21.0,25,0.00,,,0.00,weatherlink.com 1.10,2013-04-29 17:09:00,
2013-04-29 11:24:00,70.4,32.0,25.01,SW,226,10.0,23.0,24,0.00,,,0.00,weatherlink.com 1.10,2013-04-29 17:24:00,
2013-04-29 11:40:00,70.6,30.0,25.01,SSW,198,11.0,32.0,22,0.00,,,0.00,weatherlink.com 1.10,2013-04-29 17:40:00,
2013-04-29 11:55:00,71.2,29.0,25.01,West,264,14.0,28.0,21,0.00,,,0.00,weatherlink.com 1.10,2013-04-29 17:55:00,
2013-04-29 12:10:00,72.1,29.0,24.99,WNW,295,9.0,29.0,20,0.00,,,0.00,weatherlink.com 1.10,2013-04-29 18:10:00,
2013-04-29 12:25:00,72.6,29.0,24.98,WSW,256,18.0,21.0,20,0.00,,,0.00,weatherlink.com 1.10,2013-04-29 18:25:00,
2013-04-29 12:40:00,72.9,28.0,24.97,WSW,255,14.0,21.0,19,0.00,,,0.00,weatherlink.com 1.10,2013-04-29 18:40:00,
2013-04-29 12:55:00,72.5,28.0,24.97,WNW,292,16.0,23.0,19,0.00,,,0.00,weatherlink.com 1.10,2013-04-29 18:55:00,
2013-04-29 13:10:00,75.0,27.0,24.96,WSW,239,9.0,16.0,17,0.00,,,0.00,weatherlink.com 1.10,2013-04-29 19:10:00,
2013-04-29 13:25:00,75.0,26.0,24.95,WNW,291,9.0,22.0,16,0.00,,,0.00,weatherlink.com 1.10,2013-04-29 19:25:00,
2013-04-29 13:40:00,74.9,24.0,24.94,WSW,245,10.0,19.0,15,0.00,,,0.00,weatherlink.com 1.10,2013-04-29 19:40:00,
2013-04-29 13:55:00,74.6,24.0,24.94,SW,234,11.0,23.0,15,0.00,,,0.00,weatherlink.com 1.10,2013-04-29 19:55:00,
2013-04-29 14:10:00,75.3,26.0,24.93,South,179,10.0,17.0,16,0.00,,,0.00,weatherlink.com 1.10,2013-04-29 20:10:00,
2013-04-29 14:25:00,75.0,24.0,24.93,West,262,13.0,15.0,15,0.00,,,0.00,weatherlink.com 1.10,2013-04-29 20:25:00,
2013-04-29 14:40:00,79.2,18.0,24.92,NW,319,13.0,19.0,10,0.00,,,0.00,weatherlink.com 1.10,2013-04-29 20:40:00,
2013-04-29 14:55:00,78.4,17.0,24.91,NNW,330,15.0,22.0,10,0.00,,,0.00,weatherlink.com 1.10,2013-04-29 20:55:00,
2013-04-29 15:10:00,78.6,18.0,24.90,NW,309,10.0,31.0,10,0.00,,,0.00,weatherlink.com 1.10,2013-04-29 21:10:00,
2013-04-29 15:25:00,79.3,16.0,24.89,West,272,10.0,20.0,9,0.00,,,0.00,weatherlink.com 1.10,2013-04-29 21:25:00,
2013-04-29 15:40:00,79.7,18.0,24.89,NW,322,13.0,18.0,10,0.00,,,0.00,weatherlink.com 1.10,2013-04-29 21:40:00,
2013-04-29 15:55:00,78.6,20.0,24.88,West,269,10.0,21.0,11,0.00,,,0.00,weatherlink.com 1.10,2013-04-29 21:55:00,
2013-04-29 16:10:00,77.5,19.0,24.89,WNW,285,12.0,24.0,11,0.00,,,0.00,weatherlink.com 1.10,2013-04-29 22:10:00,
2013-04-29 16:25:00,77.0,18.0,24.88,WNW,287,8.0,20.0,11,0.00,,,0.00,weatherlink.com 1.10,2013-04-29 22:25:00,
2013-04-29 16:40:00,77.4,21.0,24.88,WNW,284,9.0,19.0,12,0.00,,,0.00,weatherlink.com 1.10,2013-04-29 22:40:00,
2013-04-29 16:55:00,77.4,21.0,24.87,West,262,15.0,20.0,12,0.00,,,0.00,weatherlink.com 1.10,2013-04-29 22:55:00,
2013-04-29 17:10:00,77.8,21.0,24.87,West,272,9.0,27.0,12,0.00,,,0.00,weatherlink.com 1.10,2013-04-29 23:10:00,
2013-04-29 17:23:00,-999.0,-99.9,0.00,North,-999,-999.0,-999.0,-999,0.00,,,0.00,weatherlink.com 1.10,2013-04-29 23:23:00,
2013-04-29 17:36:00,77.2,21.0,24.87,WNW,284,11.0,20.0,12,0.00,,,0.00,weatherlink.com 1.10,2013-04-29 23:36:00,
2013-04-29 17:51:00,76.7,22.0,24.86,West,267,8.0,19.0,13,0.00,,,0.00,weatherlink.com 1.10,2013-04-29 23:51:00,
2013-04-29 18:06:00,76.4,24.0,24.86,WNW,301,7.0,15.0,14,0.00,,,0.00,weatherlink.com 1.10,2013-04-30 00:06:00,
2013-04-29 18:21:00,75.6,23.0,24.86,NW,307,5.0,16.0,14,0.00,,,0.00,weatherlink.com 1.10,2013-04-30 00:21:00,
2013-04-29 18:36:00,74.6,24.0,24.87,West,276,6.0,15.0,15,0.00,,,0.00,weatherlink.com 1.10,2013-04-30 00:36:00,
2013-04-29 18:51:00,73.5,25.0,24.87,West,272,5.0,10.0,16,0.00,,,0.00,weatherlink.com 1.10,2013-04-30 00:51:00,
2013-04-29 19:06:00,72.7,25.0,24.87,WSW,256,7.0,9.0,17,0.00,,,0.00,weatherlink.com 1.10,2013-04-30 01:06:00,
2013-04-29 19:21:00,71.4,26.0,24.87,West,262,4.0,8.0,18,0.00,,,0.00,weatherlink.com 1.10,2013-04-30 01:21:00,
2013-04-29 19:36:00,70.0,26.0,24.87,WNW,295,5.0,6.0,19,0.00,,,0.00,weatherlink.com 1.10,2013-04-30 01:36:00,
2013-04-29 19:51:00,68.9,26.0,24.87,WNW,290,4.0,7.0,20,0.00,,,0.00,weatherlink.com 1.10,2013-04-30 01:51:00,
2013-04-29 20:06:00,68.0,27.0,24.87,West,262,7.0,7.0,21,0.00,,,0.00,weatherlink.com 1.10,2013-04-30 02:06:00,
2013-04-29 20:21:00,67.8,25.0,24.87,West,262,6.0,9.0,20,0.00,,,0.00,weatherlink.com 1.10,2013-04-30 02:21:00,
2013-04-29 20:36:00,69.3,25.0,24.88,WSW,252,7.0,12.0,19,0.00,,,0.00,weatherlink.com 1.10,2013-04-30 02:36:00,
2013-04-29 20:51:00,69.5,24.0,24.87,West,269,6.0,12.0,18,0.00,,,0.00,weatherlink.com 1.10,2013-04-30 02:51:00,
2013-04-29 21:06:00,69.7,24.0,24.88,WSW,252,7.0,12.0,18,0.00,,,0.00,weatherlink.com 1.10,2013-04-30 03:06:00,
2013-04-29 21:21:00,67.1,26.0,24.88,West,259,7.0,11.0,21,0.00,,,0.00,weatherlink.com 1.10,2013-04-30 03:21:00,
2013-04-29 21:36:00,65.8,26.0,24.88,SW,225,9.0,11.0,22,0.00,,,0.00,weatherlink.com 1.10,2013-04-30 03:36:00,
2013-04-29 21:51:00,66.8,25.0,24.88,WSW,256,9.0,12.0,21,0.00,,,0.00,weatherlink.com 1.10,2013-04-30 03:51:00,
2013-04-29 22:06:00,66.2,26.0,24.88,WSW,249,7.0,12.0,22,0.00,,,0.00,weatherlink.com 1.10,2013-04-30 04:06:00,
2013-04-29 22:21:00,65.8,26.0,24.89,WSW,243,10.0,13.0,22,0.00,,,0.00,weatherlink.com 1.10,2013-04-30 04:21:00,
2013-04-29 22:36:00,63.9,26.0,24.89,WNW,294,3.0,7.0,24,0.00,,,0.00,weatherlink.com 1.10,2013-04-30 04:36:00,
2013-04-29 22:51:00,62.3,27.0,24.89,West,277,4.0,9.0,26,0.00,,,0.00,weatherlink.com 1.10,2013-04-30 04:51:00,
2013-04-29 23:06:00,60.9,27.0,24.89,West,267,8.0,10.0,28,0.00,,,0.00,weatherlink.com 1.10,2013-04-30 05:06:00,
2013-04-29 23:21:00,61.8,26.0,24.89,WNW,300,6.0,9.0,26,0.00,,,0.00,weatherlink.com 1.10,2013-04-30 05:21:00,
2013-04-29 23:36:00,60.8,26.0,24.90,West,266,6.0,10.0,27,0.00,,,0.00,weatherlink.com 1.10,2013-04-30 05:36:00,
2013-04-29 23:51:00,59.8,27.0,24.90,West,274,5.0,9.0,29,0.00,,,0.00,weatherlink.com 1.10,2013-04-30 05:51:00,